Weather History for MMGL - May, 2013

Change the Weather History Date:

Wednesday, May 1, 2013

  Actual Average Record
Temperature  
Mean Temperature 70 °F -  
Max Temperature 87 °F 87 °F 93 °F (2002)
Min Temperature 53 °F 51 °F 42 °F (1998)
Cooling Degree Days 5    
Growing Degree Days 20 (Base 50)    
Moisture  
Dew Point 23 °F    
Average Humidity 24    
Maximum Humidity 62    
Minimum Humidity 4    
Precipitation  
Precipitation 0.00 in - - ()
Sea Level Pressure  
Sea Level Pressure 29.98 in    
Wind  
Wind Speed 7 mph ()    
Max Wind Speed 21 mph    
Max Gust Speed -    
Visibility 9.9 miles    
Events      
Averages and records for this station are not official NWS values.
T = Trace of Precipitation, MM = Missing Value Source: Averaged Metar Reports

Daily Weather History Graph

Daily Weather History Graph

Search for Another Location

Airport or City:

Trip Planner

Search our weather history database for the weather conditions in past years. The results will help you decide how hot, cold, wet, or windy it might be!

Date:

Astronomy

May. 01, 2013 Rise Set
Actual Time 7:23 AM CDT 8:17 PM CDT
Civil Twilight 7:00 AM CDT 8:40 PM CDT
Nautical Twilight 6:32 AM CDT 9:08 PM CDT
Astronomical Twilight 6:04 AM CDT 9:36 PM CDT
Moon 1:26 AM CDT (5/1) 1:03 PM CDT (5/1)
Length of Visible Light 13h 40m
Length of Day
12h 54m
Waning Gibbous, 59% of the Moon is Illuminated
May 1
Waning Gibbous
May 2
Last Quarter
May 9
New
May 17
First Quarter
May 24
Full

Hourly Weather History & Observations

Time (CDT) Temp. Dew Point Humidity Pressure Visibility Wind Dir Wind Speed Gust Speed Precip Events Conditions
12:54 AM 66.2 °F 19.4 °F 17% 29.74 in 10.0 mi NW 6.9 mph - N/A   Scattered Clouds
1:49 AM 64.4 °F 30.2 °F 28% 30.08 in 10.0 mi WNW 6.9 mph - N/A   Mostly Cloudy
2:55 AM 62.6 °F 41.0 °F 45% 30.07 in 10.0 mi WNW 6.9 mph - N/A   Mostly Cloudy
3:54 AM 59.0 °F 41.0 °F 51% 29.74 in 10.0 mi WNW 8.1 mph - N/A   Mostly Cloudy
4:55 AM 59.0 °F 44.6 °F 59% 30.07 in 10.0 mi WNW 8.1 mph - N/A   Mostly Cloudy
5:55 AM 59.0 °F 44.6 °F 59% 30.09 in 10.0 mi West 5.8 mph - N/A   Mostly Cloudy
6:45 AM 57.2 °F 42.8 °F 59% 29.78 in 10.0 mi West 9.2 mph - N/A   Mostly Cloudy
7:48 AM 53.6 °F 41.0 °F 62% 30.12 in 10.0 mi Calm Calm - N/A   Mostly Cloudy
8:54 AM 62.6 °F 41.0 °F 45% 30.14 in 8.0 mi Calm Calm - N/A   Mostly Cloudy
9:45 AM 68.0 °F 35.6 °F 30% 29.80 in 10.0 mi Calm Calm - N/A   Mostly Cloudy
10:48 AM 73.4 °F 32.0 °F 22% 30.17 in 10.0 mi NNW 3.5 mph - N/A   Mostly Cloudy
11:54 AM 77.0 °F 15.8 °F 10% 30.15 in 10.0 mi Calm Calm - N/A   Scattered Clouds
1:53 PM 84.2 °F 12.2 °F 7% 30.10 in 10.0 mi WNW 8.1 mph - N/A   Scattered Clouds
2:48 PM 87.8 °F 12.2 °F 6% 30.07 in 10.0 mi WNW 17.3 mph - N/A   Partly Cloudy
3:52 PM 87.8 °F 5.0 °F 4% 29.70 in 10.0 mi NNW 16.1 mph - N/A   Partly Cloudy
4:47 PM 87.8 °F -5.8 °F 4% 30.03 in 10.0 mi West 20.7 mph - N/A   Clear
5:49 PM 87.8 °F 12.2 °F 6% 30.01 in 10.0 mi West 18.4 mph - N/A   Partly Cloudy
6:50 PM 87.8 °F 12.2 °F 6% 29.66 in 10.0 mi West 16.1 mph - N/A   Clear
7:46 PM 86.0 °F 8.6 °F 5% 30.02 in 10.0 mi West 15.0 mph - N/A   Partly Cloudy
8:49 PM 80.6 °F 10.4 °F 7% 30.03 in 10.0 mi West 9.2 mph - N/A   Partly Cloudy
9:50 PM 75.2 °F 5.0 °F 7% 29.73 in 10.0 mi Calm Calm - N/A   Partly Cloudy
10:47 PM 71.6 °F 8.6 °F 9% 30.08 in 10.0 mi WSW 3.5 mph - N/A   Partly Cloudy
11:50 PM 68.0 °F 14.0 °F 12% 30.11 in 10.0 mi West 4.6 mph - N/A   Partly Cloudy